EW6539 Weather Reports


Display with metric or nautical units.
time (UTC)temp
F
wind
direction
speed
MPH
gust
MPH
rain 1hr
in
rain 24hr
in
rain mn
in
humidity
%
barometer
mb
20260505102036 57 240 1.0 7.0 0.00 0.00 0.00 82 1012.1
20260505101538 57 254 1.0 6.0 0.00 0.00 0.00 82 1011.9
20260505101037 57 0 1.0 3.0 0.00 0.00 0.00 82 1011.9
20260505100537 57 0 0.0 5.0 0.00 0.00 0.00 82 1011.9
20260505100049 56 257 1.0 5.0 0.00 0.00 0.00 82 1012.0
20260505095537 56 252 1.0 5.0 0.00 0.00 0.00 82 1011.9
20260505095037 56 232 1.0 4.0 0.00 0.00 0.00 82 1011.9
20260505094550 56 227 0.0 3.0 0.00 0.00 0.00 82 1012.0
20260505094037 56 252 1.0 6.0 0.00 0.00 0.00 82 1012.0
20260505093537 56 219 0.0 6.0 0.00 0.00 0.00 81 1011.8
20260505093049 56 195 0.0 6.0 0.00 0.00 0.00 81 1011.8
20260505092537 57 212 0.0 4.0 0.00 0.00 0.00 81 1011.8
20260505092037 57 0 0.0 4.0 0.00 0.00 0.00 80 1011.9
20260505091555 57 0 1.0 5.0 0.00 0.00 0.00 80 1011.9
20260505091040 57 144 0.0 6.0 0.00 0.00 0.00 79 1011.8
20260505090536 57 259 1.0 6.0 0.00 0.00 0.00 79 1011.9
20260505090047 57 230 2.0 6.0 0.00 0.00 0.00 79 1011.9
20260505085537 57 214 2.0 5.0 0.00 0.00 0.00 79 1011.8
20260505085037 57 0 1.0 8.0 0.00 0.00 0.00 79 1011.9
20260505084556 57 248 0.0 8.0 0.00 0.00 0.00 78 1011.9
20260505084036 58 170 2.0 9.0 0.00 0.00 0.00 78 1011.8
20260505083540 58 261 3.0 9.0 0.00 0.00 0.00 78 1011.9
20260505083056 58 243 2.0 6.0 0.00 0.00 0.00 78 1011.9
20260505082537 58 262 1.0 5.0 0.00 0.00 0.00 78 1011.9
20260505082037 58 0 1.0 8.0 0.00 0.00 0.00 78 1011.9
20260505081551 58 0 1.0 8.0 0.00 0.00 0.00 78 1011.9
20260505081037 57 126 3.0 8.0 0.00 0.00 0.00 78 1011.8
20260505080537 57 267 1.0 8.0 0.00 0.00 0.00 78 1011.9
20260505080040 57 114 1.0 9.0 0.00 0.00 0.00 78 1012.0
20260505075541 57 213 3.0 9.0 0.00 0.00 0.00 78 1011.8
20260505075037 57 261 1.0 9.0 0.00 0.00 0.00 78 1011.8
20260505074550 57 240 1.0 9.0 0.00 0.00 0.00 78 1011.8
20260505074037 57 0 2.0 9.0 0.00 0.00 0.00 78 1011.8
20260505073537 57 237 1.0 9.0 0.00 0.00 0.00 78 1011.8
20260505073057 57 228 0.0 5.0 0.00 0.00 0.00 77 1011.9
20260505072537 57 264 1.0 10.0 0.00 0.00 0.00 77 1011.8
20260505072038 57 207 0.0 10.0 0.00 0.00 0.00 76 1011.6
20260505071551 58 204 2.0 9.0 0.00 0.00 0.00 76 1011.6
20260505071037 58 271 2.0 10.0 0.00 0.00 0.00 75 1011.6
20260505070537 58 191 2.0 10.0 0.00 0.00 0.00 75 1011.4
20260505070053 58 256 1.0 7.0 0.00 0.00 0.00 75 1011.5
20260505065538 58 256 1.0 7.0 0.00 0.00 0.00 74 1011.5
20260505065036 58 247 0.0 4.0 0.00 0.00 0.00 74 1011.5
20260505064625 58 0 0.0 6.0 0.00 0.00 0.00 74 1011.6
20260505064037 59 248 2.0 8.0 0.00 0.00 0.00 73 1011.5
20260505063538 59 240 2.0 8.0 0.00 0.00 0.00 73 1011.6
20260505063047 59 271 3.0 10.0 0.00 0.00 0.00 73 1011.7
20260505062537 59 264 2.0 10.0 0.00 0.00 0.00 73 1011.8
20260505062038 59 249 3.0 10.0 0.00 0.00 0.00 73 1011.6
20260505061548 59 140 1.0 7.0 0.00 0.00 0.00 73 1011.7
20260505061041 59 250 1.0 8.0 0.00 0.00 0.00 72 1011.6
20260505060537 59 209 1.0 8.0 0.00 0.00 0.00 72 1011.8
20260505060050 59 254 0.0 8.0 0.00 0.00 0.00 72 1011.8
20260505055540 59 243 1.0 10.0 0.00 0.00 0.00 72 1011.9
20260505055037 59 229 2.0 10.0 0.00 0.00 0.00 72 1011.9
20260505054552 59 0 1.0 9.0 0.00 0.00 0.00 71 1011.9
20260505054037 59 226 2.0 9.0 0.00 0.00 0.00 71 1011.8
20260505053538 59 257 1.0 4.0 0.00 0.00 0.00 71 1011.9
20260505053048 59 246 1.0 8.0 0.00 0.00 0.00 71 1011.9
20260505052539 59 273 1.0 8.0 0.00 0.00 0.00 71 1011.9
20260505052037 59 249 0.0 6.0 0.00 0.00 0.00 70 1011.8
20260505051549 59 160 1.0 8.0 0.00 0.00 0.00 70 1011.9
20260505051037 59 159 1.0 8.0 0.00 0.00 0.00 69 1011.9
20260505050537 59 219 1.0 8.0 0.00 0.00 0.00 70 1011.9
20260505041556 59 217 0.0 8.0 0.00 0.00 0.00 68 1012.1
20260505041037 59 171 1.0 7.0 0.00 0.00 0.00 69 1012.2
20260505040541 58 176 1.0 5.0 0.00 0.00 0.00 69 1012.2
20260505040044 58 0 0.0 4.0 0.00 0.00 0.00 70 1012.3
20260505035537 58 0 0.0 4.0 0.00 0.00 0.00 70 1012.1
20260505035036 57 0 0.0 4.0 0.00 0.00 0.00 70 1012.0
20260505034604 57 0 0.0 5.0 0.00 0.00 0.00 71 1012.2
20260505034038 57 260 0.0 5.0 0.00 0.00 0.00 71 1012.2
20260505033537 57 0 0.0 2.0 0.00 0.00 0.00 71 1012.2
20260505033047 57 103 0.0 6.0 0.00 0.00 0.00 71 1012.3
20260505032537 57 144 1.0 6.0 0.00 0.00 0.00 71 1012.2
20260505032037 56 0 1.0 2.0 0.00 0.00 0.00 71 1012.2
20260505031546 56 0 0.0 5.0 0.00 0.00 0.00 72 1012.3
20260505031037 56 0 0.0 5.0 0.00 0.00 0.00 72 1012.4
20260505030541 56 0 0.0 3.0 0.00 0.00 0.00 72 1012.4
20260505030049 56 0 0.0 3.0 0.00 0.00 0.00 73 1012.4
20260505025537 56 0 0.0 3.0 0.00 0.00 0.00 73 1012.5
20260505025037 56 96 0.0 3.0 0.00 0.00 0.00 73 1012.4
20260505024541 56 141 0.0 4.0 0.00 0.00 0.00 73 1012.4
20260505024037 56 0 0.0 4.0 0.00 0.00 0.00 73 1012.5
20260505023537 56 0 0.0 4.0 0.00 0.00 0.00 73 1012.6
20260505023050 56 0 0.0 6.0 0.00 0.00 0.00 72 1012.5
20260505022537 56 0 0.0 6.0 0.00 0.00 0.00 71 1012.7
20260505022037 56 0 0.0 0.0 0.00 0.00 0.00 70 1012.6
20260505021545 57 0 0.0 2.0 0.00 0.00 0.00 69 1012.7
20260505021036 57 0 0.0 2.0 0.00 0.00 0.00 69 1012.7
20260505020537 58 0 0.0 2.0 0.00 0.00 0.00 68 1012.7
20260505015535 58 0 0.0 3.0 0.00 0.00 0.00 66 1012.6
20260505015036 58 0 1.0 3.0 0.00 0.00 0.00 65 1012.8
20260505014545 58 0 0.0 2.0 0.00 0.00 0.00 65 1012.7
20260505014036 59 0 0.0 2.0 0.00 0.00 0.00 64 1012.6
20260505013537 59 0 0.0 4.0 0.00 0.00 0.00 63 1012.6
20260505013042 59 0 1.0 4.0 0.00 0.00 0.00 62 1012.4
20260505012540 59 142 0.0 2.0 0.00 0.00 0.00 61 1012.6
20260505012038 60 153 0.0 2.0 0.00 0.00 0.00 61 1012.4
20260505011550 60 0 0.0 2.0 0.00 0.00 0.00 60 1012.4
20260505011038 60 142 0.0 2.0 0.00 0.00 0.00 60 1012.4
20260505010537 60 136 0.0 2.0 0.00 0.00 0.00 60 1012.2
20260505010107 60 146 0.0 1.0 0.00 0.00 0.00 59 1012.2
20260505005537 60 150 0.0 3.0 0.00 0.00 0.00 58 1012.2
20260505005037 61 129 0.0 3.0 0.00 0.00 0.00 57 1012.1
20260505004601 61 0 0.0 1.0 0.00 0.00 0.00 57 1012.0
20260505004040 61 0 0.0 1.0 0.00 0.00 0.00 55 1011.9
20260505003537 62 0 0.0 3.0 0.00 0.00 0.00 55 1011.9
20260505003051 63 0 0.0 3.0 0.00 0.00 0.00 53 1011.9
20260505002536 63 106 0.0 2.0 0.00 0.00 0.00 53 1011.8
20260505002040 63 136 0.0 2.0 0.00 0.00 0.00 52 1011.7
20260505001546 64 141 1.0 5.0 0.00 0.00 0.00 51 1011.7
20260505001039 64 146 0.0 5.0 0.00 0.00 0.00 50 1011.6
20260505000537 65 233 0.0 4.0 0.00 0.00 0.00 49 1011.5
20260505000045 65 150 0.0 6.0 0.00 0.00 0.00 48 1011.5
20260504235537 66 146 1.0 6.0 0.00 0.00 0.00 46 1011.4
20260504235037 67 132 1.0 3.0 0.00 0.00 0.00 43 1011.3
20260504234541 67 132 0.0 10.0 0.00 0.00 0.00 39 1011.2
20260504234036 68 228 3.0 10.0 0.00 0.00 0.00 38 1011.2
20260504233537 68 235 1.0 8.0 0.00 0.00 0.00 39 1011.1
20260504233049 69 290 3.0 8.0 0.00 0.00 0.00 37 1011.1
20260504232537 69 327 2.0 9.0 0.00 0.00 0.00 36 1011.1
20260504232037 69 261 1.0 9.0 0.00 0.00 0.00 36 1011.0
20260504231618 70 246 0.0 7.0 0.00 0.00 0.00 35 1011.0
20260504231036 70 271 1.0 12.0 0.00 0.00 0.00 34 1011.0
20260504230536 70 334 3.0 12.0 0.00 0.00 0.00 35 1010.9
20260504230047 70 226 4.0 13.0 0.00 0.00 0.00 33 1010.9
20260504225537 70 221 3.0 13.0 0.00 0.00 0.00 34 1010.9
20260504225038 70 321 2.0 14.0 0.00 0.00 0.00 34 1010.8
20260504224550 70 238 6.0 14.0 0.00 0.00 0.00 33 1010.8
20260504224039 71 257 4.0 11.0 0.00 0.00 0.00 34 1010.9
20260504223537 71 219 4.0 11.0 0.00 0.00 0.00 33 1010.9
20260504223046 71 273 3.0 13.0 0.00 0.00 0.00 33 1010.8
20260504222538 71 221 4.0 13.0 0.00 0.00 0.00 32 1010.6
20260504222039 72 261 4.0 15.0 0.00 0.00 0.00 32 1010.7
20260504221630 72 290 3.0 15.0 0.00 0.00 0.00 32 1010.8
20260504221037 72 258 3.0 14.0 0.00 0.00 0.00 32 1010.8
20260504220537 72 272 5.0 14.0 0.00 0.00 0.00 31 1010.9
20260504220051 72 265 5.0 13.0 0.00 0.00 0.00 32 1011.0
20260504215541 72 259 4.0 12.0 0.00 0.00 0.00 31 1011.0
20260504215037 72 238 5.0 16.0 0.00 0.00 0.00 31 1010.8
20260504214541 72 231 6.0 16.0 0.00 0.00 0.00 31 1010.8
20260504214055 73 261 5.0 15.0 0.00 0.00 0.00 30 1010.7
20260504213536 73 263 2.0 14.0 0.00 0.00 0.00 32 1010.8
20260504213049 73 330 3.0 14.0 0.00 0.00 0.00 31 1011.0
20260504212537 73 238 3.0 12.0 0.00 0.00 0.00 31 1010.9
20260504212039 73 198 3.0 14.0 0.00 0.00 0.00 31 1010.9
20260504211542 72 239 5.0 14.0 0.00 0.00 0.00 31 1011.1
20260504211036 72 248 7.0 12.0 0.00 0.00 0.00 31 1011.0
20260504210536 72 0 4.0 14.0 0.00 0.00 0.00 33 1010.9
20260504210047 72 229 5.0 15.0 0.00 0.00 0.00 32 1010.9
20260504205536 72 250 5.0 15.0 0.00 0.00 0.00 31 1011.1
20260504205037 72 220 7.0 14.0 0.00 0.00 0.00 31 1010.9
20260504204547 72 223 3.0 14.0 0.00 0.00 0.00 33 1011.0
20260504204040 72 234 5.0 13.0 0.00 0.00 0.00 31 1011.1
20260504203536 72 222 5.0 11.0 0.00 0.00 0.00 31 1010.9
20260504203049 72 269 4.0 11.0 0.00 0.00 0.00 30 1011.0
20260504202537 73 248 5.0 11.0 0.00 0.00 0.00 30 1011.0
20260504202036 73 229 4.0 10.0 0.00 0.00 0.00 33 1011.0
20260504201547 72 247 3.0 12.0 0.00 0.00 0.00 32 1011.0
20260504201040 72 233 4.0 12.0 0.00 0.00 0.00 33 1011.1
20260504200536 72 254 5.0 11.0 0.00 0.00 0.00 31 1011.1
20260504200045 72 275 4.0 12.0 0.00 0.00 0.00 32 1011.0
20260504195536 72 219 3.0 14.0 0.00 0.00 0.00 33 1011.1
20260504195036 72 269 5.0 14.0 0.00 0.00 0.00 32 1011.2
20260504194552 72 194 5.0 13.0 0.00 0.00 0.00 33 1011.3
20260504194038 72 302 2.0 15.0 0.00 0.00 0.00 35 1011.2
20260504193536 71 200 5.0 15.0 0.00 0.00 0.00 33 1011.3
20260504193047 72 166 5.0 15.0 0.00 0.00 0.00 32 1011.4
20260504192536 71 263 3.0 12.0 0.00 0.00 0.00 35 1011.4
20260504192037 71 248 3.0 12.0 0.00 0.00 0.00 32 1011.4
20260504191610 71 227 5.0 13.0 0.00 0.00 0.00 33 1011.6
20260504191036 71 219 5.0 14.0 0.00 0.00 0.00 33 1011.6
20260504190536 70 294 5.0 16.0 0.00 0.00 0.00 34 1011.7
20260504190049 71 324 5.0 16.0 0.00 0.00 0.00 32 1011.8
20260504185537 70 248 5.0 16.0 0.00 0.00 0.00 34 1012.0
20260504185036 70 319 6.0 15.0 0.00 0.00 0.00 32 1012.0
20260504184556 70 302 5.0 13.0 0.00 0.00 0.00 34 1012.1
20260504184037 70 154 5.0 12.0 0.00 0.00 0.00 33 1012.2
20260504183537 70 266 4.0 15.0 0.00 0.00 0.00 33 1012.2
20260504183046 70 232 4.0 15.0 0.00 0.00 0.00 34 1012.3
20260504182536 70 223 5.0 15.0 0.00 0.00 0.00 33 1012.3
20260504182036 70 262 6.0 12.0 0.00 0.00 0.00 34 1012.5
20260504181546 70 221 4.0 13.0 0.00 0.00 0.00 35 1012.4
20260504181037 70 273 2.0 14.0 0.00 0.00 0.00 35 1012.6
20260504180536 70 260 5.0 14.0 0.00 0.00 0.00 33 1012.8
20260504180051 69 261 5.0 15.0 0.00 0.00 0.00 34 1012.7
20260504175538 69 322 4.0 17.0 0.00 0.00 0.00 35 1012.8
20260504175037 69 146 6.0 17.0 0.00 0.00 0.00 33 1012.9
20260504174548 69 192 3.0 12.0 0.00 0.00 0.00 33 1012.9
20260504174037 69 225 6.0 12.0 0.00 0.00 0.00 35 1013.0
20260504173536 69 266 2.0 16.0 0.00 0.00 0.00 35 1013.0
20260504173047 69 210 4.0 16.0 0.00 0.00 0.00 34 1013.1
20260504172536 68 223 5.0 17.0 0.00 0.00 0.00 35 1013.3
20260504172039 68 265 5.0 17.0 0.00 0.00 0.00 36 1013.3
20260504171546 68 271 4.0 17.0 0.00 0.00 0.00 36 1013.3
20260504171037 68 297 4.0 11.0 0.00 0.00 0.00 35 1013.4
20260504170537 68 291 5.0 16.0 0.00 0.00 0.00 36 1013.5
20260504151035 64 288 4.0 13.0 0.00 0.00 0.00 45 1014.6
20260504150535 64 229 4.0 12.0 0.00 0.00 0.00 46 1014.6
20260504141038 62 225 5.0 16.0 0.00 0.00 0.00 48 1014.9
20260504140535 61 215 2.0 16.0 0.00 0.00 0.00 51 1014.7
20260504130537 57 236 4.0 11.0 0.00 0.00 0.00 58 1015.5
20260504110535 44 247 1.0 6.0 0.00 0.00 0.00 77 1016.2